Regional Weather Roundup
Issued by NWS San Diego, CA

Home | Current Version | Previous Version | Text Only | Print | Product List | Glossary On
Versions: 1 2 3 4 5 6 7 8 9 10 11 12 13 14 15 16 17 18 19 20 21 22 23 24 25 26 27 28 29 30 31 32 33 34 35 36 37 38 39 40 41 42 43 44 45 46 47 48 49 50
000
ASUS46 KSGX 012110
RWRSGX

SAN DIEGO HOURLY WEATHER ROUNDUP
NATIONAL WEATHER SERVICE SAN DIEGO CA
200 PM PDT WED OCT 01 2014

NOTE: "FAIR" INDICATES FEW OR NO CLOUDS BELOW 12,000 FEET WITH NO
SIGNIFICANT WEATHER AND/OR OBSTRUCTIONS TO VISIBILITY.

CAZ042-043-060-061-PZZ750-775-012200-

GREATER SAN DIEGO AREA

CITY           SKY/WX    TMP DP  RH WIND       PRES   REMARKS
LINDBERGH FLD  MOSUNNY   73  61  65 SW10      29.80F
POINT LOMA       N/A     74  62  67 SW13        N/A
NATIONAL CITY    N/A     74  64  70 NW5       29.79F
CHULA VISTA      N/A     73  65  74 W8        29.72F
IMPERIAL BEACH MOSUNNY   74  62  66 SW13      29.80F
BROWN FIELD    SUNNY     76  61  59 W9        29.79F
MIRAMAR MCAS   MOSUNNY   78  58  49 SW9       29.78F
MONTGOMERY FLD SUNNY     75  61  61 SW10      29.79F

$$

NORTH SAN DIEGO COUNTY

CITY           SKY/WX    TMP DP  RH WIND       PRES   REMARKS
CAMP PENDLETON SUNNY     76  59  55 SW12      29.76F
OCEANSIDE AP   SUNNY     76  61  59 W8        29.77F
OCEANSIDE HBR    N/A     71  66  84 SW9       29.80F
VISTA            N/A     76  65  68 W3        29.76F
CARLSBAD       SUNNY     73  62  68 W10       29.78F
DEL MAR          N/A     76  66  71 S2        29.81F
LA JOLLA SCRIP   N/A     71  66  83 CALM      29.76F
FALLBROOK        N/A     82  61  49 SW3       29.77F
ESCONDIDO        N/A     84  63  48 SW10      29.78F
SAN MARCOS       N/A     75  64  67 W12       29.76S
POWAY            N/A     83  63  50 W5        29.77F

$$

EAST SAN DIEGO COUNTY

CITY           SKY/WX    TMP DP  RH WIND       PRES   REMARKS
RAMONA         SUNNY     83  53  35 W8        29.79F
LA MESA          N/A     76  64  68 CALM      29.72F
JAMUL            N/A     80  62  53 NW2       29.76F
MT. LAGUNA OBS   N/A     64  32  31 NE5       29.60F
CAMPO            N/A     84  41  21 S8        29.80F

$$

ORANGE COUNTY AND THE LOS ANGELES BASIN

CITY           SKY/WX    TMP DP  RH WIND       PRES   REMARKS
JOHN WAYNE AP  SUNNY     80  62  54 SW8       29.77F
LAGUNA BEACH     N/A     75  66  74 S2        29.74F
LAKE FOREST FR   N/A     83  58  42 CALM      29.67F
SANTA ANA        N/A     83  67  59 CALM      29.72F
HUNTINGTON BCH   N/A     75  66  72 SW1       29.81F
LOS ALAMITOS   SUNNY     78  63  60 S10       29.78F
FULLERTON      SUNNY     83  59  44 W6        29.76F
LONG BEACH     SUNNY     76  62  62 S7        29.78F
L.A. AP        SUNNY     73  61  65 W12       29.79F
L.A. DOWNTOWN  SUNNY     80  62  54 VRB7      29.77F

$$

THE INLAND EMPIRE

CITY           SKY/WX    TMP DP  RH WIND       PRES   REMARKS
CORONA         SUNNY     85  56  37 W9        29.77F
CHINO          SUNNY     87  54  32 SW10      29.77F
ONTARIO        SUNNY     86  51  29 W10       29.77F
SAN BERNARDINO SUNNY     86  45  23 SW7       29.78F
RIVERSIDE AP   SUNNY     86  51  29 W8        29.76F
RIV CYN CREST    N/A     85  60  42 W5        29.75F
MORENO VALLEY    N/A     89  48  24 W1        28.96
MARCH ARB      SUNNY     87  46  23 W7        29.79F
HORSETHIEF CYN   N/A     84  42  22 NE3       29.78F
PERRIS           N/A     87  47  25 SW2       29.77F
MENIFEE          N/A     89  47  23 W2        29.84F
HEMET EAST       N/A     84  43  23 CALM      29.76F
FRENCH VALLEY  FAIR      86  41  20 W3        29.78F
TEMECULA         N/A     86  48  26 SW1       29.71F

$$

SAN BERNARDINO AND RIVERSIDE COUNTY MOUNTAINS

CITY           SKY/WX    TMP DP  RH WIND       PRES   REMARKS
BIG BEAR AP    SUNNY     61  30  31 NE10      30.11S
ANGELUS OAKS     N/A     73  43  35 W2        29.73F
PINE COVE        N/A     69  37  30 SW1       29.72S

$$

SOUTHERN DESERT INCLUDING THE COACHELLA VALLEY

CITY           SKY/WX    TMP DP  RH WIND       PRES   REMARKS
PALM SPRINGS   SUNNY     97  33  10 VRB6G17   29.75F
THOUSAND PALMS   N/A     95  40  14 NW3       29.70F
PALM DESERT      N/A     98  41  14 CALM      30.19R
THERMAL        SUNNY     96  38  13 CALM      29.69F
BLYTHE         SUNNY     92  46  20 NE5       29.74F
IMPERIAL AP    SUNNY     93  45  19 N6        29.71F
EL CENTRO NAS  SUNNY     93  41  16 E6        29.71F
YUMA AZ        MOSUNNY   93  52  24 CALM      29.72F
MEXICALI       SUNNY     93  34  12 SW3       29.73

$$

UPPER DESERT

CITY           SKY/WX    TMP DP  RH WIND       PRES   REMARKS
VICTORVILLE AP MOSUNNY   82  32  16 NE13      29.92F
HESPERIA         N/A     80  41  24 N1        29.92F
APPLE VALLEY     N/A     82  32  16 NE5G17    29.97F
PALMDALE       SUNNY     84  34  16 E13G29    29.89F
LANCASTER      SUNNY     84  35  17 NE15G26   29.89F
EDWARDS AFB    SUNNY     85  35  16 E6        29.87F
DAGGETT        SUNNY     87  32  14 E8        29.87F
29 PALMS N     SUNNY     86  37  17 NW7       29.92F
NEEDLES        SUNNY     94  36  13 N20       29.78F

$$

REGIONAL REPORTS

CITY           SKY/WX    TMP DP  RH WIND       PRES   REMARKS
SANTA BARBARA  SUNNY     74  62  66 VRB7      29.80F
SANDBERG       SUNNY     79  33  19 E18G30    30.00F
MT. WILSON       N/A     75  50  41 SW3         N/A
LAS VEGAS NV   MOSUNNY   82  30  15 E12G22    29.87F
PHOENIX AZ     MOSUNNY   88  39  17 CALM      29.76F
TIJUANA        SUNNY     64  57  77 CALM      29.86S
ENSENADA NW      N/A     71  32  24 W3        29.76

$$

OFFSHORE ISLANDS

CITY           SKY/WX    TMP DP  RH WIND       PRES   REMARKS
CATALINA ARPT  SUNNY     71  58  63 W7        29.83F
SAN NICOLAS IS MOSUNNY   73  60  63 S7        29.80F

$$

MARINE AND OFFSHORE BUOY REPORTS

STATION/POSITION SKY/WX   TEMP    WIND        PRES    SWELL
                          AIR SEA DIR/SP/G            HT/PER/DIR
                          (F)     (DEG/KT/KT) (MB)    (FT/S/D)
TANNER BANKS               67 69  290/  2/  4 1009.1F   7/300/ 9
S CLEMENTE BASIN           68 72  250/  6/  8 1008.8F   5/280/ 9
SAN NICOLAS IS.               67                N/A     3/310/11
SO. S. ROSA ISLA           65 65   30/  2/  4 1008.9F   8/11
W. S. BARBARA CH           65 62  290/  2/  4 1008.7F   8/300/10
M. S. BARBARA CH           66 67  100/  4/  4 1009.9
S. MONICA BASIN            65 71  220/  6/  6 1008.9F   3/240/11
S PEDRO CHANNEL               73                N/A     2/250/11
DANA POINT                    71                N/A     2/200/11
CMP PENDLETON NS              69                N/A     2/230/22
OCEANSIDE OFFSHR              70                N/A     2/220/15
TORREY PINES OTR              73                N/A     2/220/15
LA JOLLA 1                 70 71  250/  6/  8 1008.9S
MISSION BAY BUOY              73                N/A     2/230/15
SAN DIEGO BAY                 73              1009.3F
POINT LOMA SOUTH              73                N/A     2/210/15

$$




USA.gov is the U.S. government's official web portal to all federal, state and local government web resources and services.